Tracking 33199 objects as of 16-Feb-2026
HD Live streaming from Space Station
objects crossing your sky now

STARLINK-34239

Track STARLINK-34239 now!
10-day predictions
STARLINK-34239 is classified as:


NORAD ID: 64728
Int'l Code: 2025-144E
Perigee: 481.5 km
Apogee: 483.2 km
Inclination: 53.2 °
Period: 94.1 minutes
Semi major axis: 6853 km
RCS: Unknown
Launch date: July 2, 2025
Source: United States (US)
Launch site: AIR FORCE EASTERN TEST RANGE (AFETR)
Your satellite tracking list
Your tracking list is empty




NASA's NSSDC Master Catalog

Two Line Element Set (TLE):
1 64728U 25144E   26046.93966431  .00026339  00000-0  89845-3 0  9992
2 64728  53.1592 281.9414 0001239  85.7817 274.3326 15.30192649 36381
Source of the keplerian elements: AFSPC